Other Surface Observations
Issued by NWS Tucson, AZ

Home | Current Version | Previous Version | Text Only | Print | Product List | Glossary On
Versions: 1 2 3 4 5 6 7 8 9 10 11 12 13 14 15 16 17 18 19 20 21 22 23 24 25 26 27 28 29 30 31 32 33 34 35 36 37 38 39 40 41 42 43 44 45 46 47 48 49 50
986
SXUS55 KTWC 110615
OSOTWC

WEATHER ROUNDUP FOR SOUTHEAST ARIZONA
NATIONAL WEATHER SERVICE TUCSON AZ
1115 PM MST SAT DEC 10 2016

AZZ504>506-514-110715-
LOCATION       SKY/WX    TMP DP  RH WIND       PRES   REMARKS
TUCSON         CLOUDY    54  33  45 S7        30.12S
DAVIS-MONTHAN  CLOUDY    51  33  49 SE6       30.11S
CHILDRENS PARK N/A      N/A N/A  51 E3                PIMA CO DEQ
ALVERNON/22ND  N/A       56 N/A N/A SE2               PIMA CO DEQ
CHERRY/GLENN   N/A       55 N/A N/A E3                PIMA CO DEQ
TANGERINE      N/A       56 N/A N/A NE6               PIMA CO DEQ
CONTL RANCH    N/A       53  36  53 SE3               PIMA CO DEQ
GRANT/1ST      N/A       56  36  46 SE3               PIMA CO DEQ
CRAYCROFT/22ND N/A       55  36  48 NW7               PIMA CO DEQ
GOLFLINKS/KOLB N/A       56  36  47 SE3               PIMA CO DEQ
AJO/12TH       N/A       55  36  49 S9                PIMA CO DEQ
FAIRGROUNDS    N/A       50 N/A N/A SE7               PIMA CO DEQ
SAGUARO        N/A       50  30  46 CALM              *SABINO CYN
SAN CARLOS     N/A       47  34  61 NW3               *SAN CARLOS
GREEN VALLEY   N/A       51  34  52 SW4               PIMA CO DEQ
HORSE CAMP CYN N/A       54  32  43 CALM              *ARAVAIPA CYN
RINCON MTNS    N/A       42  21  43 W3                *NR MANNING CAMP
$$

AZZ509>511-110715-
LOCATION       SKY/WX    TMP DP  RH WIND       PRES   REMARKS
SAFFORD        CLOUDY    45  31  58 E5        30.09R
STRAY HORSE    N/A       44  14  29 N/A               *
TRAIL CABIN    N/A       43  31  62 SW3               *N OF GRANVILLE
BLACK HILLS    NOT AVBL
DRY LAKE       N/A       44  13  28 W8G17             *NATANES MTNS
NOON CREEK     N/A       47  27  46 W4G10             *PINALENO MTNS
COLUMBINE      N/A       40  24  53 W5G13             *PINALENO MTNS
GUTHRIE        N/A       48  27  44 NW9G19            *SW OF GUTHRIE
$$

AZZ502-503-513-110715-
LOCATION       SKY/WX    TMP DP  RH WIND       PRES   REMARKS
NOGALES        CLOUDY    48  25  40 SE3       30.15S
SELLS          N/A       52  30  42 E4                *
SASABE         N/A       43  28  56 SW5               *ALTAR VLY
HOPKINS        N/A       48  20  32 W3                *SANTA RITA MTNS
CARR CYN       N/A       45  21  38 SW2               *W OF HEREFORD
$$

AZZ507-508-512-110715-
LOCATION       SKY/WX    TMP DP  RH WIND       PRES   REMARKS
SIERRA VISTA   CLOUDY    52  22  30 VRB3      30.17S
DOUGLAS        MOCLDY    43  26  51 NE3       30.15R
EMPIRE MTNS    NOT AVBL
MULESHOE RANCH N/A       48  27  43 S2                *PRESERVE
HEADQUARTERS   N/A       41  28  60 E4                *CHIRICAHUA MTNS
$$

.............................NOTES.............................
THIS IS AN AUTOMATED COLLECTIVE WITH MINIMAL QUALITY CONTROL.
PIMA CO DEQ SITES HAVE NONSTANDARD WIND SENSOR HEIGHTS.
PIMA CO DEQ SITES DO NOT REPORT WIND GUSTS.
* INDICATES WIND SENSORS LOCATED AT 20 FEET INSTEAD OF 33 FEET.
..............................KEY..............................
SKY/WX - SKY CONDITION/WEATHER
TMP    - TEMPERATURE IN FAHRENHEIT
DP     - DEWPOINT IN FAHRENHEIT
RH     - RELATIVE HUMIDITY IN PERCENT
WIND   - DIRECTION AND SPEED IN MILES PER HOUR (MPH)
VRB    - VARIABLE WIND DIRECTION
PRES   - MEAN SEA LEVEL PRESSURE IN INCHES OF MERCURY
         F - FALLING PRESSURE   R - RISING PRESSURE
         S - STEADY PRESSURE
VSB    - VISIBILITY IN MILES
HX     - HEAT INDEX IN FAHRENHEIT
WCI    - WIND CHILL INDEX IN FAHRENHEIT
N/A    - NOT AVAILABLE
AFB    - AIR FORCE BASE
         DAVIS-MONTHAN IS DAVIS-MONTHAN AIR FORCE BASE
CYN    - CANYON
MTNS   - MOUNTAINS
NCA    - NATIONAL CONSERVATION AREA
NR     - NEAR
VLY    - VALLEY
CONTL  - CONTINENTAL
PIMA CO DEQ - PIMA COUNTY DEPT OF ENVIRONMENTAL QUALITY



USA.gov is the U.S. government's official web portal to all federal, state and local government web resources and services.